TimeCST,TemperatureF,Dew PointF,Humidity,Sea Level PressureIn,VisibilityMPH,Wind Direction,Wind SpeedMPH,Gust SpeedMPH,PrecipitationIn,Events,Conditions,WindDirDegrees,DateUTC
12:53 AM,41.0,32.0,70,30.46,10.0,East,4.6,-,N/A,,Clear,80,2013-01-10 06:53:00
1:53 AM,43.0,32.0,65,30.43,10.0,ENE,6.9,-,N/A,,Clear,70,2013-01-10 07:53:00
2:53 AM,44.1,32.0,63,30.43,10.0,East,8.1,-,N/A,,Clear,100,2013-01-10 08:53:00
3:53 AM,45.0,32.0,60,30.38,10.0,East,9.2,-,N/A,,Mostly Cloudy,80,2013-01-10 09:53:00
4:53 AM,44.1,32.0,63,30.35,10.0,East,8.1,-,0.00,Rain,Light Rain,90,2013-01-10 10:53:00
5:53 AM,44.1,33.1,65,30.33,10.0,East,6.9,-,0.00,Rain,Light Rain,80,2013-01-10 11:53:00
6:53 AM,44.1,33.1,65,30.31,10.0,East,10.4,-,0.00,,Overcast,80,2013-01-10 12:53:00
7:53 AM,43.0,35.1,74,30.30,10.0,ENE,9.2,-,0.01,Rain,Light Rain,70,2013-01-10 13:53:00
8:19 AM,42.8,35.6,76,30.28,10.0,East,9.2,-,0.00,,Overcast,90,2013-01-10 14:19:00
8:53 AM,44.1,36.0,73,30.27,10.0,East,10.4,-,0.01,Rain,Light Rain,100,2013-01-10 14:53:00
9:53 AM,43.0,39.0,86,30.25,2.0,ESE,8.1,-,0.07,Rain,Light Rain,110,2013-01-10 15:53:00
9:58 AM,42.8,39.2,87,30.24,2.0,ESE,5.8,-,0.02,Rain,Rain,110,2013-01-10 15:58:00
10:53 AM,44.1,41.0,89,30.22,4.0,ESE,9.2,-,0.04,,Overcast,120,2013-01-10 16:53:00
11:53 AM,45.0,42.1,90,30.15,3.0,ESE,11.5,-,0.00,,Overcast,110,2013-01-10 17:53:00
12:21 PM,44.6,42.8,93,30.10,2.0,ESE,9.2,16.1,N/A,,Overcast,120,2013-01-10 18:21:00
12:53 PM,45.0,43.0,93,30.12,2.0,SE,8.1,-,N/A,,Overcast,140,2013-01-10 18:53:00
1:20 PM,46.4,44.6,93,30.08,1.2,ESE,8.1,-,N/A,,Overcast,120,2013-01-10 19:20:00
1:53 PM,46.0,45.0,96,30.06,1.5,SE,9.2,19.6,N/A,,Overcast,130,2013-01-10 19:53:00
2:53 PM,48.0,46.0,93,30.01,3.0,SE,11.5,-,N/A,,Overcast,130,2013-01-10 20:53:00
3:53 PM,50.0,48.0,93,29.98,1.5,ESE,8.1,-,0.00,Rain,Light Rain,120,2013-01-10 21:53:00
4:53 PM,50.0,48.0,93,29.96,1.5,East,8.1,-,0.01,Rain,Light Rain,100,2013-01-10 22:53:00
5:53 PM,50.0,48.9,96,29.94,1.5,ESE,6.9,-,0.01,Rain,Light Rain,110,2013-01-10 23:53:00
6:53 PM,51.1,48.9,92,29.94,2.5,SE,6.9,-,0.01,,Overcast,130,2013-01-11 00:53:00
7:00 PM,51.8,48.2,88,29.93,3.0,SE,5.8,-,N/A,,Overcast,130,2013-01-11 01:00:00
7:20 PM,51.8,50.0,94,29.92,1.2,SE,6.9,-,N/A,,Overcast,130,2013-01-11 01:20:00
7:34 PM,51.8,50.0,94,29.90,0.5,ESE,5.8,-,N/A,Fog,Fog,120,2013-01-11 01:34:00
7:53 PM,52.0,51.1,97,29.90,0.5,SE,5.8,-,N/A,Fog,Fog,130,2013-01-11 01:53:00
8:53 PM,54.0,53.1,97,29.85,0.5,ESE,5.8,-,0.02,Fog-Rain,Light Rain,120,2013-01-11 02:53:00
9:00 PM,53.6,53.6,100,29.84,10.0,ESE,6.9,-,0.00,,Overcast,120,2013-01-11 03:00:00
9:09 PM,55.4,53.6,94,29.83,2.0,ESE,8.1,-,0.01,Rain,Light Rain,120,2013-01-11 03:09:00
9:20 PM,55.4,53.6,94,29.82,2.0,ESE,10.4,-,0.06,Rain,Heavy Rain,110,2013-01-11 03:20:00
9:46 PM,55.4,53.6,94,29.81,2.0,ESE,8.1,-,0.07,Rain,Light Rain,120,2013-01-11 03:46:00
9:53 PM,55.9,54.0,93,29.80,2.0,ESE,6.9,-,0.08,Rain,Light Rain,120,2013-01-11 03:53:00
9:59 PM,55.4,53.6,94,29.80,6.0,SE,8.1,-,0.00,Rain,Light Rain,130,2013-01-11 03:59:00
10:11 PM,55.4,53.6,94,29.79,6.0,SSE,8.1,-,0.02,Rain,Light Rain,150,2013-01-11 04:11:00
10:27 PM,57.2,55.4,94,29.79,4.0,SSE,8.1,-,0.06,Rain,Rain,150,2013-01-11 04:27:00
10:53 PM,59.0,57.0,93,29.78,4.0,SSE,8.1,17.3,0.08,Rain,Rain,160,2013-01-11 04:53:00
11:25 PM,59.0,55.4,88,29.80,10.0,SW,4.6,-,0.04,Rain,Light Rain,220,2013-01-11 05:25:00
11:53 PM,59.0,55.0,87,29.79,10.0,SW,5.8,-,0.04,,Scattered Clouds,220,2013-01-11 05:53:00